TimeCDT,TemperatureF,Dew PointF,Humidity,Sea Level PressureIn,VisibilityMPH,Wind Direction,Wind SpeedMPH,Gust SpeedMPH,PrecipitationIn,Events,Conditions,WindDirDegrees,DateUTC
12:15 AM,44.6,44.6,100,29.88,6.0,NNE,20.7,31.1,0.00,,Overcast,30,2013-10-05 05:15:00
12:35 AM,44.6,44.6,100,29.86,10.0,NNE,21.9,31.1,0.00,,Overcast,30,2013-10-05 05:35:00
12:55 AM,44.6,44.6,100,29.85,10.0,NNE,23.0,29.9,0.00,,Overcast,30,2013-10-05 05:55:00
1:15 AM,44.6,44.6,100,29.84,5.0,NNE,23.0,34.5,0.00,,Overcast,30,2013-10-05 06:15:00
1:35 AM,46.4,46.4,100,29.82,2.0,NE,23.0,34.5,0.00,,Overcast,40,2013-10-05 06:35:00
1:55 AM,46.4,46.4,100,29.81,1.8,NE,24.2,31.1,0.00,,Overcast,40,2013-10-05 06:55:00
2:15 AM,46.4,46.4,100,29.80,1.5,NE,21.9,31.1,0.00,,Overcast,40,2013-10-05 07:15:00
2:35 AM,46.4,46.4,100,29.78,1.5,NE,21.9,35.7,0.00,,Overcast,40,2013-10-05 07:35:00
2:55 AM,46.4,46.4,100,29.77,1.5,NE,24.2,35.7,0.01,,Overcast,40,2013-10-05 07:55:00
3:15 AM,46.4,46.4,100,29.75,1.8,NE,24.2,35.7,0.00,,Overcast,40,2013-10-05 08:15:00
3:35 AM,46.4,46.4,100,29.75,3.0,NE,20.7,32.2,0.00,,Overcast,40,2013-10-05 08:35:00
3:55 AM,48.2,48.2,100,29.76,1.5,NE,19.6,34.5,0.01,,Overcast,40,2013-10-05 08:55:00
4:15 AM,48.2,48.2,100,29.76,1.8,NE,19.6,32.2,0.00,,Overcast,40,2013-10-05 09:15:00
4:35 AM,48.2,48.2,100,29.77,1.5,NE,21.9,28.8,0.00,,Overcast,40,2013-10-05 09:35:00
4:55 AM,46.4,46.4,100,29.76,1.2,NE,19.6,27.6,0.01,,Overcast,40,2013-10-05 09:55:00
5:15 AM,46.4,46.4,100,29.74,2.0,NE,19.6,26.5,0.00,,Overcast,40,2013-10-05 10:15:00
5:35 AM,46.4,46.4,100,29.75,1.8,NE,19.6,26.5,0.01,,Overcast,40,2013-10-05 10:35:00
5:55 AM,46.4,46.4,100,29.73,1.8,NE,18.4,27.6,0.02,,Overcast,40,2013-10-05 10:55:00
6:15 AM,48.2,48.2,100,29.73,1.8,NE,18.4,27.6,0.00,,Overcast,40,2013-10-05 11:15:00
6:35 AM,48.2,48.2,100,29.74,1.5,NE,17.3,25.3,0.00,,Overcast,40,2013-10-05 11:35:00
6:55 AM,48.2,48.2,100,29.74,1.8,NE,18.4,24.2,0.00,,Overcast,50,2013-10-05 11:55:00
7:15 AM,48.2,48.2,100,29.74,1.8,NE,20.7,27.6,0.00,,Overcast,50,2013-10-05 12:15:00
7:35 AM,48.2,48.2,100,29.73,2.5,NE,20.7,28.8,0.00,,Overcast,50,2013-10-05 12:35:00
7:55 AM,48.2,48.2,100,29.74,3.0,NE,20.7,28.8,0.00,,Overcast,40,2013-10-05 12:55:00
8:15 AM,48.2,48.2,100,29.73,4.0,NE,18.4,27.6,0.00,,Overcast,40,2013-10-05 13:15:00
8:35 AM,48.2,48.2,100,29.72,5.0,NE,21.9,29.9,0.00,,Overcast,40,2013-10-05 13:35:00
8:55 AM,48.2,48.2,100,29.73,7.0,NE,23.0,31.1,0.00,,Overcast,40,2013-10-05 13:55:00
9:15 AM,48.2,48.2,100,29.73,7.0,NNE,21.9,29.9,0.00,,Overcast,30,2013-10-05 14:15:00
9:35 AM,48.2,48.2,100,29.74,2.0,NE,19.6,28.8,0.00,,Overcast,40,2013-10-05 14:35:00
9:55 AM,48.2,48.2,100,29.74,1.2,NE,20.7,32.2,0.00,,Overcast,40,2013-10-05 14:55:00
10:15 AM,50.0,50.0,100,29.74,0.8,ENE,19.6,28.8,0.01,,Overcast,60,2013-10-05 15:15:00
10:35 AM,51.8,51.8,100,29.75,0.8,NE,18.4,27.6,0.02,,Overcast,50,2013-10-05 15:35:00
10:55 AM,48.2,48.2,100,29.76,1.0,ESE,8.1,20.7,0.02,,Overcast,120,2013-10-05 15:55:00
11:15 AM,46.4,46.4,100,29.76,0.8,South,8.1,-,0.02,,Overcast,170,2013-10-05 16:15:00
11:35 AM,46.4,46.4,100,29.77,1.5,South,8.1,-,0.03,,Overcast,190,2013-10-05 16:35:00
11:55 AM,46.4,46.4,100,29.77,1.2,Calm,Calm,-,0.03,,Overcast,0,2013-10-05 16:55:00
12:15 PM,46.4,46.4,100,29.77,1.2,SE,6.9,-,0.00,,Overcast,140,2013-10-05 17:15:00
12:35 PM,46.4,46.4,100,29.77,1.2,ESE,8.1,-,0.00,,Overcast,110,2013-10-05 17:35:00
12:55 PM,46.4,46.4,100,29.77,1.0,East,6.9,-,0.01,,Overcast,90,2013-10-05 17:55:00
1:15 PM,46.4,46.4,100,29.78,2.0,ESE,6.9,-,0.00,,Overcast,120,2013-10-05 18:15:00
1:35 PM,46.4,46.4,100,29.79,1.8,ESE,6.9,-,0.00,,Overcast,120,2013-10-05 18:35:00
1:55 PM,46.4,46.4,100,29.78,1.2,ESE,5.8,-,0.01,,Overcast,120,2013-10-05 18:55:00
2:15 PM,46.4,46.4,100,29.78,2.5,ESE,8.1,-,0.00,,Overcast,120,2013-10-05 19:15:00
2:35 PM,46.4,46.4,100,29.79,1.8,ESE,9.2,-,0.01,,Overcast,110,2013-10-05 19:35:00
2:55 PM,46.4,46.4,100,29.79,1.8,East,5.8,-,0.01,,Overcast,90,2013-10-05 19:55:00
3:15 PM,46.4,46.4,100,29.80,1.5,East,3.5,-,0.00,,Overcast,80,2013-10-05 20:15:00
3:35 PM,46.4,46.4,100,29.80,3.0,ENE,4.6,-,0.01,,Overcast,60,2013-10-05 20:35:00
3:55 PM,48.2,48.2,100,29.81,3.0,NNE,5.8,-,0.01,,Overcast,20,2013-10-05 20:55:00
4:15 PM,48.2,48.2,100,29.80,2.0,NNE,5.8,-,0.01,,Overcast,30,2013-10-05 21:15:00
4:35 PM,48.2,48.2,100,29.80,4.0,North,8.1,-,0.01,,Overcast,10,2013-10-05 21:35:00
4:55 PM,48.2,48.2,100,29.81,7.0,NNE,9.2,-,0.01,,Overcast,30,2013-10-05 21:55:00
5:15 PM,48.2,48.2,100,29.80,1.2,NE,6.9,-,0.00,,Overcast,40,2013-10-05 22:15:00
5:35 PM,48.2,48.2,100,29.81,1.2,NNE,9.2,-,0.00,,Overcast,30,2013-10-05 22:35:00
5:55 PM,48.2,48.2,100,29.81,2.5,NNE,12.7,-,0.00,,Overcast,30,2013-10-05 22:55:00
6:15 PM,48.2,48.2,100,29.81,1.0,NNE,15.0,19.6,0.00,,Overcast,20,2013-10-05 23:15:00
6:35 PM,46.4,46.4,100,29.82,0.8,NNE,17.3,-,0.00,,Overcast,20,2013-10-05 23:35:00
6:55 PM,46.4,46.4,100,29.82,0.5,North,15.0,19.6,0.01,,Overcast,10,2013-10-05 23:55:00
7:15 PM,46.4,46.4,100,29.82,1.5,NNE,12.7,-,0.00,,Overcast,20,2013-10-06 00:15:00
7:35 PM,46.4,46.4,100,29.81,1.2,North,10.4,18.4,0.00,,Overcast,10,2013-10-06 00:35:00
7:55 PM,46.4,46.4,100,29.82,1.2,North,12.7,17.3,0.01,,Overcast,10,2013-10-06 00:55:00
8:15 PM,46.4,46.4,100,29.83,1.0,NNE,12.7,-,0.00,,Overcast,20,2013-10-06 01:15:00
8:35 PM,46.4,46.4,100,29.83,1.5,NNE,12.7,18.4,0.02,,Overcast,20,2013-10-06 01:35:00
8:55 PM,46.4,46.4,100,29.83,3.0,North,15.0,-,0.04,,Overcast,360,2013-10-06 01:55:00
9:15 PM,46.4,46.4,100,29.84,3.0,North,16.1,25.3,0.01,,Overcast,360,2013-10-06 02:15:00
9:35 PM,46.4,46.4,100,29.85,3.0,North,18.4,25.3,0.04,,Overcast,360,2013-10-06 02:35:00
9:55 PM,46.4,46.4,100,29.86,2.5,North,17.3,28.8,0.15,,Overcast,360,2013-10-06 02:55:00
10:15 PM,46.4,46.4,100,29.87,2.5,North,19.6,25.3,0.06,,Overcast,360,2013-10-06 03:15:00
10:35 PM,46.4,46.4,100,29.87,3.0,North,16.1,24.2,0.12,,Overcast,360,2013-10-06 03:35:00
10:55 PM,46.4,46.4,100,29.87,3.0,North,16.1,24.2,0.18,,Overcast,360,2013-10-06 03:55:00
11:15 PM,46.4,46.4,100,29.86,4.0,North,12.7,20.7,0.03,,Overcast,10,2013-10-06 04:15:00
11:35 PM,46.4,46.4,100,29.86,7.0,North,13.8,21.9,0.03,,Overcast,360,2013-10-06 04:35:00
11:55 PM,46.4,46.4,100,29.85,8.0,North,13.8,18.4,0.03,,Overcast,360,2013-10-06 04:55:00